Location: Bernadets
(43.3537°N, 0.3167°E)
Time: 00:35:09
(UTC+00:00)

Cosmos 2263 Rocket - Pass Details

Date: 24 October 2021
Orbit: 825 x 847 km, 71.0° (Epoch: 27 November)

Event Time Altitude Azimuth Distance (km) Brightness Sun altitude
Rises 18:32:25 0° 325° (NW) 3,371 5.8 -17.2°
Reaches altitude 10° 18:35:07 10° 315° (NW) 2,433 5.2 -17.7°
Maximum altitude 18:39:51 29° 256° (WSW) 1,466 4.2 -18.5°
Drops below altitude 10° 18:44:34 10° 198° (SSW) 2,422 4.8 -19.4°
Sets 18:47:15 0° 187° (S) 3,352 5.4 -19.9°
